Weather History for KGFA - November, 2012

Change the Weather History Date:

Sunday, November 4, 2012

  Actual Average (KGTF) Record (KGTF)
Temperature  
Mean Temperature 54 °F 38 °F  
Max Temperature 60 °F 49 °F 70 °F (1975)
Min Temperature 48 °F 27 °F -9 °F (2003)
Degree Days  
Heating Degree Days 11 27  
Month to date heating degree days 105  
Since 1 July heating degree days 1125  
Cooling Degree Days 0 0  
Month to date cooling degree days 0  
Year to date cooling degree days 298  
Growing Degree Days 4 (Base 50)    
Moisture  
Dew Point 37 °F    
Average Humidity 53    
Maximum Humidity 61    
Minimum Humidity 42    
Precipitation  
Precipitation 0.00 in 0.02 in 0.33 in (1927)
Month to date precipitation 0.08  
Year to date precipitation 13.69  
Snow  
Snow 0.00 in 0.20 in 3.60 in (1895)
Month to date snowfall 0.8  
Since 1 July snowfall 6.4  
Since 1 September snowfall 6.1  
Snow Depth -    
Sea Level Pressure  
Sea Level Pressure 30.23 in    
Wind  
Wind Speed 17 mph (SW)    
Max Wind Speed 24 mph    
Max Gust Speed 36 mph    
Visibility 10 miles    
Events      
T = Trace of Precipitation, MM = Missing Value Source: NWS Daily Summary

Daily Weather History Graph

Daily Weather History Graph

Search for Another Location

Airport or City:

Trip Planner

Search our weather history database for the weather conditions in past years. The results will help you decide how hot, cold, wet, or windy it might be!

Date:

Astronomy

Nov. 04, 2012 Rise Set
Actual Time 7:13 AM MST 5:02 PM MST
Civil Twilight 6:41 AM MST 5:34 PM MST
Nautical Twilight 6:04 AM MST 6:11 PM MST
Astronomical Twilight 5:29 AM MST 6:46 PM MST
Moon 9:40 PM MST (11/4) 12:04 PM MST (11/4)
Length of Visible Light 10h 53m
Length of Day
9h 48m
Waning Gibbous, 71% of the Moon is Illuminated
Nov 4
Waning Gibbous
Nov 6
Last Quarter
Nov 13
New
Nov 20
First Quarter
Nov 28
Full

Hourly Weather History & Observations

Time (MST) Temp. Dew Point Humidity Pressure Visibility Wind Dir Wind Speed Gust Speed Precip Events Conditions
12:56 AM 52.0 °F 37.0 °F 57% 30.05 in 10.0 mi SSW 24.2 mph 35.7 mph N/A   Clear
1:56 AM 53.1 °F 35.1 °F 50% 30.07 in 10.0 mi SSW 21.9 mph 27.6 mph N/A   Scattered Clouds
1:56 AM 53.1 °F 35.1 °F 50% 30.09 in 10.0 mi SSW 19.6 mph - N/A   Overcast
2:56 AM 53.1 °F 35.1 °F 50% 30.11 in 10.0 mi SSW 23.0 mph - N/A   Overcast
3:56 AM 52.0 °F 35.1 °F 53% 30.13 in 10.0 mi SSW 15.0 mph - N/A   Overcast
4:56 AM 52.0 °F 35.1 °F 53% 30.15 in 10.0 mi SSW 16.1 mph - N/A   Mostly Cloudy
5:56 AM 50.0 °F 36.0 °F 59% 30.19 in 10.0 mi SSW 13.8 mph - N/A   Clear
6:56 AM 48.9 °F 36.0 °F 61% 30.22 in 10.0 mi SW 8.1 mph - N/A   Clear
7:56 AM 51.1 °F 36.0 °F 56% 30.26 in 10.0 mi SW 8.1 mph - N/A   Overcast
8:56 AM 48.9 °F 36.0 °F 61% 30.29 in 10.0 mi WSW 6.9 mph - N/A   Mostly Cloudy
9:56 AM 51.1 °F 36.0 °F 56% 30.32 in 10.0 mi West 5.8 mph - N/A   Overcast
10:56 AM 54.0 °F 36.0 °F 51% 30.31 in 10.0 mi WSW 5.8 mph - N/A   Overcast
11:56 AM 55.0 °F 35.1 °F 47% 30.31 in 10.0 mi West 5.8 mph - N/A   Overcast
12:56 PM 57.0 °F 37.0 °F 47% 30.29 in 10.0 mi SW 6.9 mph - N/A   Mostly Cloudy
1:56 PM 59.0 °F 36.0 °F 42% 30.26 in 10.0 mi WSW 8.1 mph - N/A   Partly Cloudy
2:56 PM 60.1 °F 37.0 °F 42% 30.25 in 10.0 mi SSW 15.0 mph - N/A   Mostly Cloudy
3:56 PM 57.9 °F 37.0 °F 46% 30.27 in 10.0 mi SSW 18.4 mph - N/A   Clear
4:56 PM 55.0 °F 37.9 °F 53% 30.28 in 10.0 mi SSW 17.3 mph - N/A   Clear
5:56 PM 55.0 °F 37.9 °F 53% 30.28 in 10.0 mi SSW 18.4 mph - N/A   Clear
6:56 PM 54.0 °F 39.0 °F 57% 30.30 in 10.0 mi SSW 21.9 mph 26.5 mph N/A   Clear
7:56 PM 53.1 °F 39.0 °F 59% 30.27 in 10.0 mi SSW 18.4 mph - N/A   Clear
8:56 PM 53.1 °F 39.0 °F 59% 30.27 in 10.0 mi South 13.8 mph - N/A   Clear
9:56 PM 53.1 °F 39.0 °F 59% 30.25 in 10.0 mi SSW 15.0 mph - N/A   Clear
10:56 PM 54.0 °F 39.0 °F 57% 30.22 in 10.0 mi SSW 21.9 mph 31.1 mph N/A   Clear